TimeEDT,TemperatureF,Dew PointF,Humidity,Sea Level PressureIn,VisibilityMPH,Wind Direction,Wind SpeedMPH,Gust SpeedMPH,PrecipitationIn,Events,Conditions,WindDirDegrees,DateUTC
12:53 AM,37.4,32.0,81,30.19,10.0,NNE,8.1,-,N/A,,Clear,20,2011-11-04 04:53:00
1:53 AM,35.1,30.9,85,30.21,10.0,North,5.8,-,N/A,,Clear,360,2011-11-04 05:53:00
2:53 AM,35.1,30.9,85,30.21,10.0,North,6.9,-,N/A,,Clear,360,2011-11-04 06:53:00
3:53 AM,34.0,30.9,89,30.22,10.0,North,5.8,-,N/A,,Clear,360,2011-11-04 07:53:00
4:53 AM,33.1,30.9,92,30.23,10.0,North,3.5,-,N/A,,Clear,350,2011-11-04 08:53:00
5:53 AM,30.0,28.9,96,30.25,10.0,NW,3.5,-,N/A,,Clear,310,2011-11-04 09:53:00
6:53 AM,28.0,27.0,96,30.27,8.0,Calm,Calm,-,N/A,,Clear,0,2011-11-04 10:53:00
7:53 AM,28.0,27.0,96,30.28,8.0,WNW,3.5,-,N/A,,Clear,300,2011-11-04 11:53:00
8:53 AM,30.0,27.0,88,30.31,8.0,Calm,Calm,-,N/A,,Clear,0,2011-11-04 12:53:00
9:53 AM,37.0,34.0,89,30.33,10.0,North,4.6,-,N/A,,Clear,360,2011-11-04 13:53:00
10:53 AM,44.1,37.0,76,30.33,10.0,Calm,Calm,-,N/A,,Overcast,0,2011-11-04 14:53:00
11:53 AM,46.0,36.0,68,30.35,10.0,ESE,4.6,-,N/A,,Partly Cloudy,120,2011-11-04 15:53:00
12:05 PM,46.4,35.6,66,30.33,10.0,East,5.8,-,N/A,,Mostly Cloudy,90,2011-11-04 16:05:00
12:32 PM,46.4,33.8,62,30.33,10.0,ENE,6.9,-,N/A,,Scattered Clouds,70,2011-11-04 16:32:00
12:53 PM,46.0,32.0,58,30.35,10.0,NE,6.9,-,N/A,,Clear,50,2011-11-04 16:53:00
1:53 PM,51.1,33.1,50,30.33,10.0,North,6.9,-,N/A,,Partly Cloudy,10,2011-11-04 17:53:00
2:53 PM,51.8,30.2,44,30.32,10.0,ENE,9.2,-,N/A,,Partly Cloudy,60,2011-11-04 18:53:00
3:53 PM,52.0,32.0,47,30.32,10.0,NE,6.9,-,N/A,,Clear,40,2011-11-04 19:53:00
4:53 PM,51.1,30.0,44,30.33,10.0,NNE,4.6,-,N/A,,Clear,20,2011-11-04 20:53:00
5:53 PM,48.0,30.9,52,30.34,10.0,NNE,5.8,-,N/A,,Clear,30,2011-11-04 21:53:00
6:53 PM,45.0,34.0,65,30.35,10.0,North,8.1,-,N/A,,Clear,360,2011-11-04 22:53:00
7:53 PM,42.1,34.0,73,30.36,10.0,NNE,6.9,-,N/A,,Clear,30,2011-11-04 23:53:00
8:53 PM,39.9,32.0,73,30.35,10.0,NE,6.9,-,N/A,,Clear,50,2011-11-05 00:53:00
9:53 PM,37.9,30.0,73,30.38,10.0,ENE,4.6,-,N/A,,Clear,70,2011-11-05 01:53:00
10:53 PM,37.0,30.0,76,30.38,10.0,East,3.5,-,N/A,,Clear,90,2011-11-05 02:53:00
11:53 PM,35.1,30.0,82,30.38,10.0,East,3.5,-,N/A,,Clear,100,2011-11-05 03:53:00